Location: Frizzleburg
(41.0764°N, 80.4548°W)
Time: 15:16:39
(UTC+00:00)

COBE Rocket - Pass Details

Date: 17 November 2019
Orbit: 679 x 783 km, 97.1° (Epoch: 15 December)

Event Time Altitude Azimuth Distance (km) Brightness Sun altitude
Rises 10:28:08 0° 175° (S) 3,253 7.4 -19.5°
Reaches altitude 10° 10:30:29 10° 179° (S) 2,324 6.6 -19.0°
Maximum altitude 10:35:35 63° 260° (W) 858 3.9 -18.1°
Drops below altitude 10° 10:40:38 10° 342° (NNW) 2,298 6.2 -17.1°
Sets 10:42:57 0° 346° (NNW) 3,212 7.0 -16.7°
